Time,TemperatureF,DewpointF,PressureIn,WindDirection,WindDirectionDegrees,WindSpeedMPH,WindSpeedGustMPH,Humidity,HourlyPrecipIn,Conditions,Clouds,dailyrainin,SoftwareType,DateUTC
2013-03-21 00:04:00,18.6,10.0,30.16,NNW,330,6.0,10.0,70,0.00,,,0.00,weatherlink.com 1.10,2013-03-21 05:04:00,
2013-03-21 00:19:00,18.0,10.0,30.16,NW,320,4.0,10.0,70,0.00,,,0.00,weatherlink.com 1.10,2013-03-21 05:19:00,
2013-03-21 00:34:00,17.6,9.0,30.15,NNW,346,5.0,12.0,69,0.00,,,0.00,weatherlink.com 1.10,2013-03-21 05:34:00,
2013-03-21 00:49:00,17.0,9.0,30.16,NNW,339,2.0,6.0,72,0.00,,,0.00,weatherlink.com 1.10,2013-03-21 05:49:00,
2013-03-21 01:04:00,16.4,9.0,30.16,NNW,331,3.0,6.0,73,0.00,,,0.00,weatherlink.com 1.10,2013-03-21 06:04:00,
2013-03-21 01:19:00,16.2,9.0,30.15,North,11,1.0,7.0,73,0.00,,,0.00,weatherlink.com 1.10,2013-03-21 06:19:00,
2013-03-21 01:35:00,15.9,9.0,30.15,NNE,15,1.0,9.0,74,0.00,,,0.00,weatherlink.com 1.10,2013-03-21 06:35:00,
2013-03-21 01:50:00,15.7,9.0,30.15,NNW,334,2.0,7.0,74,0.00,,,0.00,weatherlink.com 1.10,2013-03-21 06:50:00,
2013-03-21 02:05:00,15.5,9.0,30.16,North,355,4.0,8.0,75,0.00,,,0.00,weatherlink.com 1.10,2013-03-21 07:05:00,
2013-03-21 02:20:00,15.4,9.0,30.16,NNE,26,2.0,7.0,74,0.00,,,0.00,weatherlink.com 1.10,2013-03-21 07:20:00,
2013-03-21 02:35:00,15.2,9.0,30.15,North,9,3.0,8.0,75,0.00,,,0.00,weatherlink.com 1.10,2013-03-21 07:35:00,
2013-03-21 02:50:00,14.8,9.0,30.15,North,11,3.0,6.0,76,0.00,,,0.00,weatherlink.com 1.10,2013-03-21 07:50:00,
2013-03-21 03:05:00,14.4,8.0,30.15,NNW,340,2.0,4.0,77,0.00,,,0.00,weatherlink.com 1.10,2013-03-21 08:05:00,
2013-03-21 03:20:00,14.0,8.0,30.15,NNW,346,2.0,4.0,77,0.00,,,0.00,weatherlink.com 1.10,2013-03-21 08:20:00,
2013-03-21 03:35:00,13.8,8.0,30.15,North,355,1.0,4.0,78,0.00,,,0.00,weatherlink.com 1.10,2013-03-21 08:35:00,
2013-03-21 03:50:00,13.5,8.0,30.14,North,9,0.0,3.0,79,0.00,,,0.00,weatherlink.com 1.10,2013-03-21 08:50:00,
2013-03-21 04:05:00,13.0,8.0,30.14,NNW,342,0.0,3.0,80,0.00,,,0.00,weatherlink.com 1.10,2013-03-21 09:05:00,
2013-03-21 04:20:00,12.5,8.0,30.14,NW,321,1.0,2.0,81,0.00,,,0.00,weatherlink.com 1.10,2013-03-21 09:20:00,
2013-03-21 04:35:00,12.5,8.0,30.15,NNW,327,2.0,4.0,81,0.00,,,0.00,weatherlink.com 1.10,2013-03-21 09:35:00,
2013-03-21 04:51:00,12.2,7.0,30.15,NNW,342,0.0,3.0,81,0.00,,,0.00,weatherlink.com 1.10,2013-03-21 09:51:00,
2013-03-21 05:06:00,11.7,7.0,30.14,NNW,342,0.0,1.0,82,0.00,,,0.00,weatherlink.com 1.10,2013-03-21 10:06:00,
2013-03-21 05:21:00,11.2,7.0,30.14,NNE,22,0.0,3.0,82,0.00,,,0.00,weatherlink.com 1.10,2013-03-21 10:21:00,
2013-03-21 05:36:00,10.9,7.0,30.14,North,9,0.0,4.0,83,0.00,,,0.00,weatherlink.com 1.10,2013-03-21 10:36:00,
2013-03-21 06:06:00,11.4,7.0,30.14,North,360,1.0,2.0,83,0.00,,,0.00,weatherlink.com 1.10,2013-03-21 11:06:00,
2013-03-21 06:21:00,11.9,8.0,30.14,North,355,1.0,2.0,83,0.00,,,0.00,weatherlink.com 1.10,2013-03-21 11:21:00,
2013-03-21 06:36:00,12.0,8.0,30.14,North,355,1.0,2.0,83,0.00,,,0.00,weatherlink.com 1.10,2013-03-21 11:36:00,
2013-03-21 06:51:00,11.9,8.0,30.14,NNW,348,0.0,2.0,83,0.00,,,0.00,weatherlink.com 1.10,2013-03-21 11:51:00,
2013-03-21 07:21:00,11.9,8.0,30.16,NNW,348,0.0,2.0,83,0.00,,,0.00,weatherlink.com 1.10,2013-03-21 12:21:00,
2013-03-21 07:36:00,12.5,8.0,30.16,WNW,289,1.0,3.0,82,0.00,,,0.00,weatherlink.com 1.10,2013-03-21 12:36:00,
2013-03-21 07:52:00,13.4,8.0,30.16,NNW,348,1.0,4.0,80,0.00,,,0.00,weatherlink.com 1.10,2013-03-21 12:52:00,
2013-03-21 08:07:00,14.3,9.0,30.16,NW,309,2.0,5.0,79,0.00,,,0.00,weatherlink.com 1.10,2013-03-21 13:07:00,
2013-03-21 08:22:00,15.0,9.0,30.16,NNW,348,2.0,6.0,78,0.00,,,0.00,weatherlink.com 1.10,2013-03-21 13:22:00,
2013-03-21 08:37:00,16.2,11.0,30.17,NNW,340,3.0,6.0,79,0.00,,,0.00,weatherlink.com 1.10,2013-03-21 13:37:00,
2013-03-21 08:52:00,17.4,11.0,30.17,NW,317,4.0,5.0,75,0.00,,,0.00,weatherlink.com 1.10,2013-03-21 13:52:00,
2013-03-21 09:07:00,18.6,11.0,30.16,NNW,340,3.0,7.0,73,0.00,,,0.00,weatherlink.com 1.10,2013-03-21 14:07:00,
2013-03-21 09:22:00,19.6,11.0,30.16,WNW,301,1.0,7.0,70,0.00,,,0.00,weatherlink.com 1.10,2013-03-21 14:22:00,
2013-03-21 09:37:00,20.6,11.0,30.16,NW,308,3.0,6.0,66,0.00,,,0.00,weatherlink.com 1.10,2013-03-21 14:37:00,
2013-03-21 09:52:00,21.5,10.0,30.16,NW,323,0.0,6.0,61,0.00,,,0.00,weatherlink.com 1.10,2013-03-21 14:52:00,
2013-03-21 10:07:00,22.7,10.0,30.16,North,360,1.0,6.0,59,0.00,,,0.00,weatherlink.com 1.10,2013-03-21 15:07:00,
2013-03-21 10:22:00,23.4,10.0,30.16,West,259,2.0,7.0,57,0.00,,,0.00,weatherlink.com 1.10,2013-03-21 15:22:00,
2013-03-21 10:37:00,24.6,10.0,30.16,WNW,287,2.0,7.0,55,0.00,,,0.00,weatherlink.com 1.10,2013-03-21 15:37:00,
2013-03-21 10:52:00,25.2,10.0,30.16,WSW,257,4.0,6.0,53,0.00,,,0.00,weatherlink.com 1.10,2013-03-21 15:52:00,
2013-03-21 11:07:00,25.4,10.0,30.16,NNW,329,5.0,8.0,52,0.00,,,0.00,weatherlink.com 1.10,2013-03-21 16:07:00,
2013-03-21 11:22:00,26.1,10.0,30.15,NNW,331,1.0,7.0,50,0.00,,,0.00,weatherlink.com 1.10,2013-03-21 16:22:00,
2013-03-21 11:37:00,26.8,10.0,30.15,NW,317,4.0,7.0,50,0.00,,,0.00,weatherlink.com 1.10,2013-03-21 16:37:00,
2013-03-21 11:53:00,27.6,11.0,30.14,North,349,5.0,8.0,49,0.00,,,0.00,weatherlink.com 1.10,2013-03-21 16:53:00,
2013-03-21 12:08:00,28.3,11.0,30.14,WNW,300,3.0,6.0,49,0.00,,,0.00,weatherlink.com 1.10,2013-03-21 17:08:00,
2013-03-21 12:23:00,28.7,12.0,30.14,North,350,2.0,9.0,49,0.00,,,0.00,weatherlink.com 1.10,2013-03-21 17:23:00,
2013-03-21 12:38:00,29.5,12.0,30.14,WNW,286,1.0,10.0,48,0.00,,,0.00,weatherlink.com 1.10,2013-03-21 17:38:00,
2013-03-21 12:53:00,30.5,11.0,30.14,NW,320,4.0,9.0,45,0.00,,,0.00,weatherlink.com 1.10,2013-03-21 17:53:00,
2013-03-21 13:08:00,30.9,12.0,30.13,West,269,4.0,8.0,46,0.00,,,0.00,weatherlink.com 1.10,2013-03-21 18:08:00,
2013-03-21 13:23:00,31.5,13.0,30.13,North,10,1.0,9.0,46,0.00,,,0.00,weatherlink.com 1.10,2013-03-21 18:23:00,
2013-03-21 13:38:00,32.3,13.0,30.12,NW,326,4.0,8.0,45,0.00,,,0.00,weatherlink.com 1.10,2013-03-21 18:38:00,
2013-03-21 13:53:00,32.5,13.0,30.11,North,5,3.0,10.0,44,0.00,,,0.00,weatherlink.com 1.10,2013-03-21 18:53:00,
2013-03-21 14:08:00,33.0,13.0,30.11,NNE,23,1.0,8.0,43,0.00,,,0.00,weatherlink.com 1.10,2013-03-21 19:08:00,
2013-03-21 14:23:00,33.5,13.0,30.10,NW,318,3.0,8.0,43,0.00,,,0.00,weatherlink.com 1.10,2013-03-21 19:23:00,
2013-03-21 14:38:00,33.2,13.0,30.09,East,85,5.0,8.0,43,0.00,,,0.00,weatherlink.com 1.10,2013-03-21 19:38:00,
2013-03-21 15:09:00,35.3,14.0,30.09,West,281,4.0,7.0,41,0.00,,,0.00,weatherlink.com 1.10,2013-03-21 20:09:00,
2013-03-21 15:24:00,34.4,13.0,30.08,North,351,3.0,6.0,41,0.00,,,0.00,weatherlink.com 1.10,2013-03-21 20:24:00,
2013-03-21 15:39:00,35.4,14.0,30.08,NW,325,4.0,8.0,41,0.00,,,0.00,weatherlink.com 1.10,2013-03-21 20:39:00,
2013-03-21 15:54:00,35.6,13.0,30.07,ENE,65,5.0,7.0,40,0.00,,,0.00,weatherlink.com 1.10,2013-03-21 20:54:00,
2013-03-21 16:09:00,35.8,14.0,30.07,WNW,288,6.0,7.0,40,0.00,,,0.00,weatherlink.com 1.10,2013-03-21 21:09:00,
2013-03-21 16:24:00,35.5,13.0,30.07,ENE,71,3.0,6.0,40,0.00,,,0.00,weatherlink.com 1.10,2013-03-21 21:24:00,
2013-03-21 16:39:00,35.7,13.0,30.07,ENE,74,2.0,7.0,40,0.00,,,0.00,weatherlink.com 1.10,2013-03-21 21:39:00,
2013-03-21 16:54:00,35.7,13.0,30.07,NNW,329,3.0,7.0,40,0.00,,,0.00,weatherlink.com 1.10,2013-03-21 21:54:00,
2013-03-21 17:09:00,36.1,13.0,30.06,NW,325,0.0,6.0,38,0.00,,,0.00,weatherlink.com 1.10,2013-03-21 22:09:00,
2013-03-21 17:24:00,36.2,14.0,30.06,ENE,65,2.0,4.0,40,0.00,,,0.00,weatherlink.com 1.10,2013-03-21 22:24:00,
2013-03-21 17:39:00,36.0,14.0,30.06,NNE,27,0.0,5.0,40,0.00,,,0.00,weatherlink.com 1.10,2013-03-21 22:39:00,
2013-03-21 17:54:00,35.6,14.0,30.06,ENE,69,4.0,6.0,42,0.00,,,0.00,weatherlink.com 1.10,2013-03-21 22:54:00,
2013-03-21 18:09:00,35.1,15.0,30.07,NE,53,0.0,5.0,43,0.00,,,0.00,weatherlink.com 1.10,2013-03-21 23:09:00,
2013-03-21 18:24:00,34.2,14.0,30.07,East,96,1.0,6.0,44,0.00,,,0.00,weatherlink.com 1.10,2013-03-21 23:24:00,
2013-03-21 18:40:00,33.5,14.0,30.07,NE,46,0.0,5.0,45,0.00,,,0.00,weatherlink.com 1.10,2013-03-21 23:40:00,
2013-03-21 18:55:00,32.9,15.0,30.07,ENE,59,0.0,3.0,49,0.00,,,0.00,weatherlink.com 1.10,2013-03-21 23:55:00,
2013-03-21 19:10:00,31.6,15.0,30.07,ENE,65,1.0,3.0,51,0.00,,,0.00,weatherlink.com 1.10,2013-03-22 00:10:00,
2013-03-21 19:25:00,30.6,15.0,30.07,ENE,65,0.0,3.0,53,0.00,,,0.00,weatherlink.com 1.10,2013-03-22 00:25:00,
2013-03-21 19:40:00,29.2,17.0,30.07,ENE,69,1.0,5.0,60,0.00,,,0.00,weatherlink.com 1.10,2013-03-22 00:40:00,
2013-03-21 19:55:00,28.2,17.0,30.08,NE,56,0.0,3.0,64,0.00,,,0.00,weatherlink.com 1.10,2013-03-22 00:55:00,
2013-03-21 20:10:00,27.6,18.0,30.08,ENE,60,2.0,3.0,66,0.00,,,0.00,weatherlink.com 1.10,2013-03-22 01:10:00,
2013-03-21 20:25:00,27.1,17.0,30.09,NE,47,0.0,2.0,67,0.00,,,0.00,weatherlink.com 1.10,2013-03-22 01:25:00,
2013-03-21 20:40:00,26.4,17.0,30.09,East,81,0.0,3.0,69,0.00,,,0.00,weatherlink.com 1.10,2013-03-22 01:40:00,
2013-03-21 20:55:00,25.8,17.0,30.09,East,81,0.0,1.0,70,0.00,,,0.00,weatherlink.com 1.10,2013-03-22 01:55:00,
2013-03-21 21:10:00,25.4,17.0,30.09,East,81,0.0,2.0,70,0.00,,,0.00,weatherlink.com 1.10,2013-03-22 02:10:00,
2013-03-21 21:25:00,25.1,17.0,30.09,East,81,0.0,1.0,71,0.00,,,0.00,weatherlink.com 1.10,2013-03-22 02:25:00,
2013-03-21 21:40:00,24.8,17.0,30.10,East,81,0.0,1.0,72,0.00,,,0.00,weatherlink.com 1.10,2013-03-22 02:40:00,
2013-03-21 21:56:00,24.7,17.0,30.10,East,81,0.0,1.0,72,0.00,,,0.00,weatherlink.com 1.10,2013-03-22 02:56:00,
2013-03-21 22:11:00,24.1,16.0,30.10,East,81,0.0,0.0,72,0.00,,,0.00,weatherlink.com 1.10,2013-03-22 03:11:00,
2013-03-21 23:11:00,22.8,16.0,30.10,East,81,0.0,0.0,76,0.00,,,0.00,weatherlink.com 1.10,2013-03-22 04:11:00,
2013-03-21 23:26:00,22.5,16.0,30.10,East,81,0.0,0.0,76,0.00,,,0.00,weatherlink.com 1.10,2013-03-22 04:26:00,
2013-03-21 23:41:00,21.7,16.0,30.10,East,81,0.0,0.0,78,0.00,,,0.00,weatherlink.com 1.10,2013-03-22 04:41:00,
2013-03-21 23:56:00,21.5,16.0,30.10,East,81,0.0,0.0,79,0.00,,,0.00,weatherlink.com 1.10,2013-03-22 04:56:00,